Location: Dammartin
(48.9032°N, 1.6195°E)
Time: 15:50:54
(UTC+00:00)

MOZHAYETS 4 - Pass Details

Date: 05 December 2023
Orbit: 654 x 672 km, 98.3° (Epoch: 24 February)

Event Time Altitude Azimuth Distance (km) Brightness Sun altitude
Rises 16:24:02 0° 10° (N) 3,036 10.7 -4.5°
Reaches altitude 10° 16:26:18 10° 7° (N) 2,119 10.0 -4.9°
Maximum altitude 16:30:50 56° 289° (WNW) 806 8.5 -5.5°
Drops below altitude 10° 16:35:20 10° 212° (SSW) 2,105 11.4 -6.2°
Sets 16:37:34 0° 208° (SSW) 3,013 12.1 -6.5°
